Regional Weather Roundup
Issued by NWS

Home | Current Version | Previous Version | Text Only | Print | Product List | Glossary Off
Versions: 1 2 3 4 5 6 7 8 9 10 11 12 13 14 15 16 17 18 19 20 21 22 23 24 25 26 27 28 29 30 31 32 33 34 35 36 37 38 39 40 41 42 43 44 45 46 47 48 49 50

000
ASUS45 KCYS 010310
RWRWY

WYOMING REGIONAL WEATHER ROUNDUP
NATIONAL WEATHER SERVICE CHEYENNE WY
900 PM MDT TUE JUN 30 2015

NOTE:  "FAIR" INDICATES FEW OR NO CLOUDS BELOW 12,000 FEET
WITH NO SIGNIFICANT WEATHER AND/OR OBSTRUCTIONS TO VISIBILITY.

WYZ001-010400-
YELLOWSTONE NATIONAL PARK

CITY           SKY/WX    TMP DP  RH WIND       PRES   REMARKS
LK YELLOWSTONE   N/A     68  47  46 NW3       30.32R
W YELLOWSTONE  NOT AVBL

$$
WYZ002>013-054>058-071-098>099-010400-
NORTHERN WYOMING

CITY           SKY/WX    TMP DP  RH WIND       PRES   REMARKS
JACKSON        FAIR      66  57  72 CALM      30.21S
CODY           FAIR      79  46  31 N5        30.07S
GREYBULL       FAIR      88  44  21 N12       29.95R
WORLAND        FAIR      73  59  61 SW8       29.98S
SHERIDAN       FAIR      77  53  43 W10       29.97R
BUFFALO        FAIR      71  51  49 W9        30.06R
GILLETTE       FAIR      71  49  45 W9        29.97R
HULETT         FAIR      77  57  50 CALM      29.98S
NEWCASTLE      FAIR      73  55  53 MISG      29.97R

$$
WYZ014>020-022>026-101>103-010400-
CENTRAL WYOMING

CITY           SKY/WX    TMP DP  RH WIND       PRES   REMARKS
BIG PINEY      FAIR      68  49  50 NW8       30.26R
PINEDALE       FAIR      68  48  49 NW3       30.27S
DUBOIS         FAIR      70  43  37 NW5       30.24S
LANDER         FAIR      70  54  56 NE6       30.11S
RIVERTON       FAIR      73  53  49 SW9       30.12F
CASPER         FAIR      67  56  67 W7        30.10R
DOUGLAS        FAIR      69  57  65 W6        30.07R

$$
WYZ021-027>030-104>119-010400-
SOUTHERN WYOMING

CITY           SKY/WX    TMP DP  RH WIND       PRES   REMARKS
EVANSTON       FAIR      77  46  33 NW9       30.26R
KEMMERER       FAIR     N/A N/A N/A NW8       30.28S
FORT BRIDGER   CLEAR     79  45  29 N8        30.28R
ROCK SPRINGS   NOT AVBL
DIXON          FAIR      67  57  69 SE12      30.23F
RAWLINS        FAIR      70  53  54 SE5       30.25R
SARATOGA       CLOUDY    72  46  40 W13       30.26F
LARAMIE        MOCLDY    61  54  77 SE8       30.29S
CHEYENNE       TSTM      66  56  70 NW30G45   30.23R
TORRINGTON     MOCLDY    81  55  40 N7        29.97R
PINE BLUFFS    FAIR      70  54  56 W6        30.06R

$$


USA.gov is the U.S. government's official web portal to all federal, state and local government web resources and services.